Year,Month,Day,Hour,Minute,Value (Times are PST for windspeed in km/hr)
2008,06,12,00,00,8.50
2008,06,12,00,01,9.10
2008,06,12,00,02,7.90
2008,06,12,00,03,7.50
2008,06,12,00,04,8.30
2008,06,12,00,05,7.00
2008,06,12,00,06,7.00
2008,06,12,00,07,6.20
2008,06,12,00,08,5.70
2008,06,12,00,09,4.60
2008,06,12,00,10,5.40
2008,06,12,00,11,5.80
2008,06,12,00,12,7.30
2008,06,12,00,13,9.20
2008,06,12,00,14,8.20
2008,06,12,00,15,11.20
2008,06,12,00,16,6.00
2008,06,12,00,17,8.00
2008,06,12,00,18,4.80
2008,06,12,00,19,7.00
2008,06,12,00,20,5.30
2008,06,12,00,21,6.70
2008,06,12,00,22,6.70
2008,06,12,00,23,7.30
2008,06,12,00,24,6.60
2008,06,12,00,25,4.80
2008,06,12,00,26,4.10
2008,06,12,00,27,7.20
2008,06,12,00,28,7.10
2008,06,12,00,29,7.20
2008,06,12,00,30,4.10
2008,06,12,00,31,7.10
2008,06,12,00,32,4.90
2008,06,12,00,33,7.50
2008,06,12,00,34,8.00
2008,06,12,00,35,5.30
2008,06,12,00,36,5.80
2008,06,12,00,37,5.10
2008,06,12,00,38,8.30
2008,06,12,00,39,4.80
2008,06,12,00,40,7.90
2008,06,12,00,41,7.50
2008,06,12,00,42,8.60
2008,06,12,00,43,5.70
2008,06,12,00,44,6.20
2008,06,12,00,45,8.20
2008,06,12,00,46,8.20
2008,06,12,00,47,8.80
2008,06,12,00,48,10.50
2008,06,12,00,49,10.50
2008,06,12,00,50,8.00
2008,06,12,00,51,8.60
2008,06,12,00,52,6.40
2008,06,12,00,53,7.60
2008,06,12,00,54,9.70
2008,06,12,00,55,7.30
2008,06,12,00,56,8.00
2008,06,12,00,57,10.40
2008,06,12,00,58,6.50
2008,06,12,00,59,8.00
2008,06,12,01,00,4.90
2008,06,12,01,01,7.00
2008,06,12,01,02,8.00
2008,06,12,01,03,6.80
2008,06,12,01,04,6.80
2008,06,12,01,05,6.80
2008,06,12,01,06,9.70
2008,06,12,01,07,7.70
2008,06,12,01,08,5.90
2008,06,12,01,09,7.20
2008,06,12,01,10,5.80
2008,06,12,01,11,6.90
2008,06,12,01,12,8.60
2008,06,12,01,13,8.90
2008,06,12,01,14,10.50
2008,06,12,01,15,8.90
2008,06,12,01,16,7.20
2008,06,12,01,17,9.30
2008,06,12,01,18,11.10
2008,06,12,01,19,7.30
2008,06,12,01,20,10.60
2008,06,12,01,21,11.30
2008,06,12,01,22,9.50
2008,06,12,01,23,9.90
2008,06,12,01,24,6.20
2008,06,12,01,25,5.50
2008,06,12,01,26,8.30
2008,06,12,01,27,11.40
2008,06,12,01,28,8.60
2008,06,12,01,29,6.80
2008,06,12,01,30,6.60
2008,06,12,01,31,5.00
2008,06,12,01,32,6.90
2008,06,12,01,33,6.50
2008,06,12,01,34,6.90
2008,06,12,01,35,8.10
2008,06,12,01,36,7.20
2008,06,12,01,37,7.20
2008,06,12,01,38,5.90
2008,06,12,01,39,6.70
2008,06,12,01,40,8.10
2008,06,12,01,41,6.60
2008,06,12,01,42,8.00
2008,06,12,01,43,6.30
2008,06,12,01,44,7.10
2008,06,12,01,45,4.10
2008,06,12,01,46,6.50
2008,06,12,01,47,5.60
2008,06,12,01,48,3.30
2008,06,12,01,49,2.60
2008,06,12,01,50,6.20
2008,06,12,01,51,5.40
2008,06,12,01,52,8.30
2008,06,12,01,53,7.20
2008,06,12,01,54,5.80
2008,06,12,01,55,4.40
2008,06,12,01,56,6.00
2008,06,12,01,57,6.70
2008,06,12,01,58,4.40
2008,06,12,01,59,2.90
2008,06,12,02,00,4.10
2008,06,12,02,01,5.30
2008,06,12,02,02,4.90
2008,06,12,02,03,4.60
2008,06,12,02,04,2.40
2008,06,12,02,05,2.30
2008,06,12,02,06,3.50
2008,06,12,02,07,2.40
2008,06,12,02,08,7.20
2008,06,12,02,09,4.80
2008,06,12,02,10,6.20
2008,06,12,02,11,5.90
2008,06,12,02,12,2.40
2008,06,12,02,13,6.80
2008,06,12,02,14,4.10
2008,06,12,02,15,5.40
2008,06,12,02,16,4.30
2008,06,12,02,17,5.40
2008,06,12,02,18,6.30
2008,06,12,02,19,5.70
2008,06,12,02,20,4.90
2008,06,12,02,21,4.70
2008,06,12,02,22,4.30
2008,06,12,02,23,3.50
2008,06,12,02,24,2.00
2008,06,12,02,25,4.40
2008,06,12,02,26,2.40
2008,06,12,02,27,2.00
2008,06,12,02,28,5.00
2008,06,12,02,29,0.30
2008,06,12,02,30,1.50
2008,06,12,02,31,0.30
2008,06,12,02,32,3.10
2008,06,12,02,33,0.50
2008,06,12,02,34,0.50
2008,06,12,02,35,3.10
2008,06,12,02,36,1.10
2008,06,12,02,37,1.70
2008,06,12,02,38,0.50
2008,06,12,02,39,3.00
2008,06,12,02,40,3.70
2008,06,12,02,41,0.70
2008,06,12,02,42,3.40
2008,06,12,02,43,2.70
2008,06,12,02,44,5.00
2008,06,12,02,45,4.50
2008,06,12,02,46,2.30
2008,06,12,02,47,5.10
2008,06,12,02,48,4.10
2008,06,12,02,49,4.20
2008,06,12,02,50,2.70
2008,06,12,02,51,5.20
2008,06,12,02,52,2.50
2008,06,12,02,53,2.90
2008,06,12,02,54,3.20
2008,06,12,02,55,2.60
2008,06,12,02,56,3.10
2008,06,12,02,57,3.20
2008,06,12,02,58,3.20
2008,06,12,02,59,3.80
2008,06,12,03,00,2.80
2008,06,12,03,01,4.10
2008,06,12,03,02,4.80
2008,06,12,03,03,4.30
2008,06,12,03,04,3.70
2008,06,12,03,05,4.70
2008,06,12,03,06,6.90
2008,06,12,03,07,6.00
2008,06,12,03,08,4.30
2008,06,12,03,09,4.30
2008,06,12,03,10,3.70
2008,06,12,03,11,4.60
2008,06,12,03,12,4.30
2008,06,12,03,13,3.20
2008,06,12,03,14,3.50
2008,06,12,03,15,3.80
2008,06,12,03,16,2.10
2008,06,12,03,17,3.40
2008,06,12,03,18,4.50
2008,06,12,03,19,4.80
2008,06,12,03,20,2.40
2008,06,12,03,21,2.00
2008,06,12,03,22,3.20
2008,06,12,03,23,1.30
2008,06,12,03,24,0.50
2008,06,12,03,25,0.00
2008,06,12,03,26,0.00
2008,06,12,03,27,0.50
2008,06,12,03,28,0.30
2008,06,12,03,29,1.80
2008,06,12,03,30,3.10
2008,06,12,03,31,3.10
2008,06,12,03,32,3.00
2008,06,12,03,33,2.80
2008,06,12,03,34,3.70
2008,06,12,03,35,2.40
2008,06,12,03,36,3.40
2008,06,12,03,37,2.00
2008,06,12,03,38,2.70
2008,06,12,03,39,3.00
2008,06,12,03,40,1.40
2008,06,12,03,41,0.40
2008,06,12,03,42,3.50
2008,06,12,03,43,2.30
2008,06,12,03,44,0.10
2008,06,12,03,45,1.90
2008,06,12,03,46,1.70
2008,06,12,03,47,1.60
2008,06,12,03,48,2.30
2008,06,12,03,49,1.20
2008,06,12,03,50,3.10
2008,06,12,03,51,0.30
2008,06,12,03,52,3.00
2008,06,12,03,53,1.00
2008,06,12,03,54,3.60
2008,06,12,03,55,2.10
2008,06,12,03,56,1.50
2008,06,12,03,57,1.60
2008,06,12,03,58,3.50
2008,06,12,03,59,3.20
2008,06,12,04,00,5.00
2008,06,12,04,01,3.30
2008,06,12,04,02,2.90
2008,06,12,04,03,2.20
2008,06,12,04,04,0.00
2008,06,12,04,05,2.40
2008,06,12,04,06,2.30
2008,06,12,04,07,1.80
2008,06,12,04,08,3.90
2008,06,12,04,09,2.50
2008,06,12,04,10,3.10
2008,06,12,04,11,2.10
2008,06,12,04,12,2.00
2008,06,12,04,13,1.10
2008,06,12,04,14,0.10
2008,06,12,04,15,0.00
2008,06,12,04,16,0.60
2008,06,12,04,17,0.30
2008,06,12,04,18,0.10
2008,06,12,04,19,0.40
2008,06,12,04,20,1.70
2008,06,12,04,21,0.80
2008,06,12,04,22,0.00
2008,06,12,04,23,0.00
2008,06,12,04,24,0.00
2008,06,12,04,25,1.10
2008,06,12,04,26,2.30
2008,06,12,04,27,1.10
2008,06,12,04,28,0.00
2008,06,12,04,29,0.00
2008,06,12,04,30,0.00
2008,06,12,04,31,0.20
2008,06,12,04,32,3.80
2008,06,12,04,33,0.90
2008,06,12,04,34,0.20
2008,06,12,04,35,1.00
2008,06,12,04,36,0.10
2008,06,12,04,37,0.00
2008,06,12,04,38,0.30
2008,06,12,04,39,0.00
2008,06,12,04,40,1.00
2008,06,12,04,41,2.20
2008,06,12,04,42,1.10
2008,06,12,04,43,2.90
2008,06,12,04,44,2.60
2008,06,12,04,45,2.10
2008,06,12,04,46,2.80
2008,06,12,04,47,1.40
2008,06,12,04,48,1.60
2008,06,12,04,49,0.90
2008,06,12,04,50,0.00
2008,06,12,04,51,0.00
2008,06,12,04,52,0.00
2008,06,12,04,53,0.00
2008,06,12,04,54,0.00
2008,06,12,04,55,0.00
2008,06,12,04,56,0.00
2008,06,12,04,57,0.00
2008,06,12,04,58,0.00
2008,06,12,04,59,0.00
2008,06,12,05,00,0.00
2008,06,12,05,01,0.00
2008,06,12,05,02,0.10
2008,06,12,05,03,0.00
2008,06,12,05,04,0.00
2008,06,12,05,05,0.10
2008,06,12,05,06,0.90
2008,06,12,05,07,1.00
2008,06,12,05,08,1.40
2008,06,12,05,09,1.00
2008,06,12,05,10,1.10
2008,06,12,05,11,1.50
2008,06,12,05,12,0.00
2008,06,12,05,13,0.30
2008,06,12,05,14,1.40
2008,06,12,05,15,1.60
2008,06,12,05,16,1.80
2008,06,12,05,17,2.80
2008,06,12,05,18,1.10
2008,06,12,05,19,0.30
2008,06,12,05,20,0.00
2008,06,12,05,21,0.00
2008,06,12,05,22,0.00
2008,06,12,05,23,0.00
2008,06,12,05,24,0.00
2008,06,12,05,25,0.00
2008,06,12,05,26,0.00
2008,06,12,05,27,0.10
2008,06,12,05,28,0.90
2008,06,12,05,29,0.00
2008,06,12,05,30,0.20
2008,06,12,05,31,0.20
2008,06,12,05,32,0.00
2008,06,12,05,33,0.00
2008,06,12,05,34,0.30
2008,06,12,05,35,0.10
2008,06,12,05,36,0.00
2008,06,12,05,37,0.00
2008,06,12,05,38,0.00
2008,06,12,05,39,0.40
2008,06,12,05,40,0.30
2008,06,12,05,41,1.30
2008,06,12,05,42,0.70
2008,06,12,05,43,0.80
2008,06,12,05,44,0.00
2008,06,12,05,45,0.30
2008,06,12,05,46,0.00
2008,06,12,05,47,0.00
2008,06,12,05,48,0.00
2008,06,12,05,49,0.00
2008,06,12,05,50,0.20
2008,06,12,05,51,0.10
2008,06,12,05,52,0.00
2008,06,12,05,53,0.00
2008,06,12,05,54,0.10
2008,06,12,05,55,0.00
2008,06,12,05,56,0.00
2008,06,12,05,57,0.00
2008,06,12,05,58,0.10
2008,06,12,05,59,0.00
2008,06,12,06,00,0.00
2008,06,12,06,01,0.00
2008,06,12,06,02,0.10
2008,06,12,06,03,0.30
2008,06,12,06,04,0.00
2008,06,12,06,05,0.10
2008,06,12,06,06,0.10
2008,06,12,06,07,0.00
2008,06,12,06,08,0.00
2008,06,12,06,09,0.00
2008,06,12,06,10,0.00
2008,06,12,06,11,0.00
2008,06,12,06,12,0.00
2008,06,12,06,13,0.00
2008,06,12,06,14,1.00
2008,06,12,06,15,1.50
2008,06,12,06,16,1.60
2008,06,12,06,17,1.60
2008,06,12,06,18,2.70
2008,06,12,06,19,1.00
2008,06,12,06,20,2.00
2008,06,12,06,21,2.50
2008,06,12,06,22,2.60
2008,06,12,06,23,2.40
2008,06,12,06,24,5.90
2008,06,12,06,25,5.00
2008,06,12,06,26,1.70
2008,06,12,06,27,0.20
2008,06,12,06,28,1.60
2008,06,12,06,29,4.50
2008,06,12,06,30,3.60
2008,06,12,06,31,2.00
2008,06,12,06,32,2.30
2008,06,12,06,33,0.20
2008,06,12,06,34,0.00
2008,06,12,06,35,0.50
2008,06,12,06,36,0.50
2008,06,12,06,37,1.90
2008,06,12,06,38,0.40
2008,06,12,06,39,0.00
2008,06,12,06,40,0.00
2008,06,12,06,41,1.40
2008,06,12,06,42,0.00
2008,06,12,06,43,0.10
2008,06,12,06,44,0.10
2008,06,12,06,45,0.00
2008,06,12,06,46,0.00
2008,06,12,06,47,0.00
2008,06,12,06,48,1.90
2008,06,12,06,49,1.40
2008,06,12,06,50,1.20
2008,06,12,06,51,1.60
2008,06,12,06,52,1.80
2008,06,12,06,53,3.90
2008,06,12,06,54,3.40
2008,06,12,06,55,3.60
2008,06,12,06,56,1.00
2008,06,12,06,57,0.00
2008,06,12,06,58,0.00
2008,06,12,06,59,0.10
2008,06,12,07,00,0.00
2008,06,12,07,01,1.20
2008,06,12,07,02,4.20
2008,06,12,07,03,4.70
2008,06,12,07,04,6.80
2008,06,12,07,05,5.90
2008,06,12,07,06,4.60
2008,06,12,07,07,5.70
2008,06,12,07,08,2.70
2008,06,12,07,09,2.30
2008,06,12,07,10,1.50
2008,06,12,07,11,6.40
2008,06,12,07,12,4.60
2008,06,12,07,13,7.10
2008,06,12,07,14,8.10
2008,06,12,07,15,7.90
2008,06,12,07,16,4.50
2008,06,12,07,17,3.80
2008,06,12,07,18,5.00
2008,06,12,07,19,3.50
2008,06,12,07,20,1.90
2008,06,12,07,21,4.00
2008,06,12,07,22,4.60
2008,06,12,07,23,1.60
2008,06,12,07,24,1.70
2008,06,12,07,25,1.20
2008,06,12,07,26,3.60
2008,06,12,07,27,2.70
2008,06,12,07,28,3.10
2008,06,12,07,29,3.30
2008,06,12,07,30,3.20
2008,06,12,07,31,4.10
2008,06,12,07,32,1.20
2008,06,12,07,33,1.50
2008,06,12,07,34,1.10
2008,06,12,07,35,1.40
2008,06,12,07,36,0.40
2008,06,12,07,37,2.60
2008,06,12,07,38,1.10
2008,06,12,07,39,1.20
2008,06,12,07,40,1.50
2008,06,12,07,41,4.70
2008,06,12,07,42,3.20
2008,06,12,07,43,1.40
2008,06,12,07,44,2.70
2008,06,12,07,45,3.40
2008,06,12,07,46,2.30
2008,06,12,07,47,4.10
2008,06,12,07,48,2.40
2008,06,12,07,49,1.30
2008,06,12,07,50,1.70
2008,06,12,07,51,3.00
2008,06,12,07,52,3.50
2008,06,12,07,53,1.40
2008,06,12,07,54,0.50
2008,06,12,07,55,1.70
2008,06,12,07,56,0.60
2008,06,12,07,57,1.70
2008,06,12,07,58,2.00
2008,06,12,07,59,2.30
2008,06,12,08,00,3.10
2008,06,12,08,01,2.00
2008,06,12,08,02,3.60
2008,06,12,08,03,5.50
2008,06,12,08,04,2.70
2008,06,12,08,05,4.30
2008,06,12,08,06,3.20
2008,06,12,08,07,0.40
2008,06,12,08,08,0.10
2008,06,12,08,09,1.20
2008,06,12,08,10,2.00
2008,06,12,08,11,2.10
2008,06,12,08,12,3.20
2008,06,12,08,13,2.50
2008,06,12,08,14,3.20
2008,06,12,08,15,2.70
2008,06,12,08,16,1.60
2008,06,12,08,17,2.00
2008,06,12,08,18,0.50
2008,06,12,08,19,0.10
2008,06,12,08,20,1.70
2008,06,12,08,21,2.90
2008,06,12,08,22,0.30
2008,06,12,08,23,0.10
2008,06,12,08,24,2.20
2008,06,12,08,25,2.10
2008,06,12,08,26,4.20
2008,06,12,08,27,2.90
2008,06,12,08,28,3.20
2008,06,12,08,29,3.40
2008,06,12,08,30,1.80
2008,06,12,08,31,2.00
2008,06,12,08,32,3.70
2008,06,12,08,33,3.00
2008,06,12,08,34,0.00
2008,06,12,08,35,1.20
2008,06,12,08,36,2.00
2008,06,12,08,37,2.10
2008,06,12,08,38,3.90
2008,06,12,08,39,3.70
2008,06,12,08,40,3.10
2008,06,12,08,41,2.30
2008,06,12,08,42,2.80
2008,06,12,08,43,4.70
2008,06,12,08,44,5.80
2008,06,12,08,45,4.90
2008,06,12,08,46,2.60
2008,06,12,08,47,2.50
2008,06,12,08,48,1.90
2008,06,12,08,49,0.00
2008,06,12,08,50,0.00
2008,06,12,08,51,0.00
2008,06,12,08,52,0.40
2008,06,12,08,53,5.30
2008,06,12,08,54,4.50
2008,06,12,08,55,3.70
2008,06,12,08,56,3.30
2008,06,12,08,57,1.50
2008,06,12,08,58,1.30
2008,06,12,08,59,0.80
2008,06,12,09,00,0.50
2008,06,12,09,01,2.90
2008,06,12,09,02,6.80
2008,06,12,09,03,7.20
2008,06,12,09,04,5.40
2008,06,12,09,05,5.60
2008,06,12,09,06,4.10
2008,06,12,09,07,4.20
2008,06,12,09,08,6.30
2008,06,12,09,09,8.30
2008,06,12,09,10,3.00
2008,06,12,09,11,1.60
2008,06,12,09,12,1.60
2008,06,12,09,13,1.70
2008,06,12,09,14,2.30
2008,06,12,09,15,0.10
2008,06,12,09,16,0.70
2008,06,12,09,17,4.20
2008,06,12,09,18,1.70
2008,06,12,09,19,1.40
2008,06,12,09,20,1.20
2008,06,12,09,21,3.10
2008,06,12,09,22,3.70
2008,06,12,09,23,4.20
2008,06,12,09,24,5.50
2008,06,12,09,25,5.70
2008,06,12,09,26,4.50
2008,06,12,09,27,4.80
2008,06,12,09,28,4.60
2008,06,12,09,29,3.40
2008,06,12,09,30,4.20
2008,06,12,09,31,4.60
2008,06,12,09,32,3.40
2008,06,12,09,33,0.20
2008,06,12,09,34,3.10
2008,06,12,09,35,5.90
2008,06,12,09,36,2.90
2008,06,12,09,37,3.00
2008,06,12,09,38,2.60
2008,06,12,09,39,4.30
2008,06,12,09,40,5.70
2008,06,12,09,41,4.80
2008,06,12,09,42,4.60
2008,06,12,09,43,4.40
2008,06,12,09,44,0.90
2008,06,12,09,45,0.70
2008,06,12,09,46,0.50
2008,06,12,09,47,2.80
2008,06,12,09,48,5.30
2008,06,12,09,49,3.20
2008,06,12,09,50,2.40
2008,06,12,09,51,4.20
2008,06,12,09,52,6.40
2008,06,12,09,53,6.10
2008,06,12,09,54,8.70
2008,06,12,09,55,6.10
2008,06,12,09,56,6.40
2008,06,12,09,57,6.30
2008,06,12,09,58,6.80
2008,06,12,09,59,8.50
2008,06,12,10,00,9.90
2008,06,12,10,01,7.50
2008,06,12,10,02,5.90
2008,06,12,10,03,3.60
2008,06,12,10,04,9.50
2008,06,12,10,05,9.20
2008,06,12,10,06,8.90
2008,06,12,10,07,6.30
2008,06,12,10,08,2.70
2008,06,12,10,09,5.20
2008,06,12,10,10,5.30
2008,06,12,10,11,7.30
2008,06,12,10,12,5.00
2008,06,12,10,13,2.90
2008,06,12,10,14,4.80
2008,06,12,10,15,4.00
2008,06,12,10,16,8.80
2008,06,12,10,17,5.60
2008,06,12,10,18,6.80
2008,06,12,10,19,8.80
2008,06,12,10,20,8.60
2008,06,12,10,21,9.20
2008,06,12,10,22,13.40
2008,06,12,10,23,12.40
2008,06,12,10,24,10.50
2008,06,12,10,25,9.30
2008,06,12,10,26,9.80
2008,06,12,10,27,8.30
2008,06,12,10,28,7.60
2008,06,12,10,29,10.80
2008,06,12,10,30,5.50
2008,06,12,10,31,11.00
2008,06,12,10,32,11.40
2008,06,12,10,33,10.00
2008,06,12,10,34,14.90
2008,06,12,10,35,16.40
2008,06,12,10,36,5.80
2008,06,12,10,37,4.20
2008,06,12,10,38,8.00
2008,06,12,10,39,4.10
2008,06,12,10,40,3.10
2008,06,12,10,41,8.30
2008,06,12,10,42,6.80
2008,06,12,10,43,6.70
2008,06,12,10,44,6.70
2008,06,12,10,45,5.50
2008,06,12,10,46,5.10
2008,06,12,10,47,8.10
2008,06,12,10,48,4.10
2008,06,12,10,49,1.80
2008,06,12,10,50,6.50
2008,06,12,10,51,10.70
2008,06,12,10,52,5.20
2008,06,12,10,53,0.30
2008,06,12,10,54,3.00
2008,06,12,10,55,8.60
2008,06,12,10,56,6.00
2008,06,12,10,57,7.00
2008,06,12,10,58,8.30
2008,06,12,10,59,10.40
2008,06,12,11,00,7.70
2008,06,12,11,01,6.10
2008,06,12,11,02,11.70
2008,06,12,11,03,5.70
2008,06,12,11,04,1.30
2008,06,12,11,05,7.50
2008,06,12,11,06,10.40
2008,06,12,11,07,9.40
2008,06,12,11,08,3.70
2008,06,12,11,09,4.50
2008,06,12,11,10,8.70
2008,06,12,11,11,6.80
2008,06,12,11,12,5.50
2008,06,12,11,13,5.20
2008,06,12,11,14,7.40
2008,06,12,11,15,10.50
2008,06,12,11,16,4.00
2008,06,12,11,17,6.30
2008,06,12,11,18,8.30
2008,06,12,11,19,9.90
2008,06,12,11,20,7.90
2008,06,12,11,21,7.80
2008,06,12,11,22,5.10
2008,06,12,11,23,5.20
2008,06,12,11,24,6.90
2008,06,12,11,25,8.40
2008,06,12,11,26,6.00
2008,06,12,11,27,7.40
2008,06,12,11,28,9.30
2008,06,12,11,29,4.80
2008,06,12,11,30,6.00
2008,06,12,11,31,4.60
2008,06,12,11,32,7.90
2008,06,12,11,33,8.00
2008,06,12,11,34,7.00
2008,06,12,11,35,8.30
2008,06,12,11,36,7.10
2008,06,12,11,37,5.00
2008,06,12,11,38,9.30
2008,06,12,11,39,12.80
2008,06,12,11,40,6.50
2008,06,12,11,41,10.20
2008,06,12,11,42,7.30
2008,06,12,11,43,12.10
2008,06,12,11,44,7.70
2008,06,12,11,45,10.50
2008,06,12,11,46,10.10
2008,06,12,11,47,6.20
2008,06,12,11,48,6.10
2008,06,12,11,49,9.70
2008,06,12,11,50,7.60
2008,06,12,11,51,11.50
2008,06,12,11,52,7.50
2008,06,12,11,53,10.30
2008,06,12,11,54,8.70
2008,06,12,11,55,6.60
2008,06,12,11,56,5.90
2008,06,12,11,57,8.40
2008,06,12,11,58,7.30
2008,06,12,11,59,4.80
2008,06,12,12,00,7.50
2008,06,12,12,01,7.20
2008,06,12,12,02,6.00
2008,06,12,12,03,8.20
2008,06,12,12,04,3.20
2008,06,12,12,05,5.50
2008,06,12,12,06,4.30
2008,06,12,12,07,5.90
2008,06,12,12,08,5.80
2008,06,12,12,09,8.90
2008,06,12,12,10,7.80
2008,06,12,12,11,13.10
2008,06,12,12,12,9.50
2008,06,12,12,13,8.70
2008,06,12,12,14,6.80
2008,06,12,12,15,9.00
2008,06,12,12,16,6.00
2008,06,12,12,17,6.40
2008,06,12,12,18,9.40
2008,06,12,12,19,5.00
2008,06,12,12,20,9.50
2008,06,12,12,21,8.10
2008,06,12,12,22,7.60
2008,06,12,12,23,7.80
2008,06,12,12,24,15.50
2008,06,12,12,25,12.80
2008,06,12,12,26,8.40
2008,06,12,12,27,8.60
2008,06,12,12,28,10.50
2008,06,12,12,29,15.20
2008,06,12,12,30,10.80
2008,06,12,12,31,13.60
2008,06,12,12,32,7.90
2008,06,12,12,33,11.90
2008,06,12,12,34,9.00
2008,06,12,12,35,12.60
2008,06,12,12,36,11.30
2008,06,12,12,37,11.30
2008,06,12,12,38,10.60
2008,06,12,12,39,11.40
2008,06,12,12,40,5.00
2008,06,12,12,41,10.20
2008,06,12,12,42,7.60
2008,06,12,12,43,4.90
2008,06,12,12,44,7.00
2008,06,12,12,45,6.60
2008,06,12,12,46,9.70
2008,06,12,12,47,14.60
2008,06,12,12,48,10.90
2008,06,12,12,49,4.40
2008,06,12,12,50,8.90
2008,06,12,12,51,8.00
2008,06,12,12,52,6.40
2008,06,12,12,53,8.60
2008,06,12,12,54,6.40
2008,06,12,12,55,6.50
2008,06,12,12,56,9.10
2008,06,12,12,57,11.20
2008,06,12,12,58,11.50
2008,06,12,12,59,6.70
2008,06,12,13,00,10.90
2008,06,12,13,01,7.30
2008,06,12,13,02,7.70
2008,06,12,13,03,8.30
2008,06,12,13,04,11.40
2008,06,12,13,05,11.90
2008,06,12,13,06,15.90
2008,06,12,13,07,13.70
2008,06,12,13,08,15.20
2008,06,12,13,09,13.10
2008,06,12,13,10,9.50
2008,06,12,13,11,11.70
2008,06,12,13,12,12.70
2008,06,12,13,13,8.70
2008,06,12,13,14,7.10
2008,06,12,13,15,12.10
2008,06,12,13,16,8.60
2008,06,12,13,17,9.90
2008,06,12,13,18,8.80
2008,06,12,13,19,7.60
2008,06,12,13,20,7.70
2008,06,12,13,21,8.90
2008,06,12,13,22,7.30
2008,06,12,13,23,6.70
2008,06,12,13,24,11.60
2008,06,12,13,25,11.00
2008,06,12,13,26,9.60
2008,06,12,13,27,8.70
2008,06,12,13,28,11.20
2008,06,12,13,29,8.20
2008,06,12,13,30,7.90
2008,06,12,13,31,11.00
2008,06,12,13,32,10.80
2008,06,12,13,33,10.50
2008,06,12,13,34,13.10
2008,06,12,13,35,8.70
2008,06,12,13,36,7.30
2008,06,12,13,37,10.60
2008,06,12,13,38,12.60
2008,06,12,13,39,10.00
2008,06,12,13,40,8.60
2008,06,12,13,41,16.20
2008,06,12,13,42,9.30
2008,06,12,13,43,14.20
2008,06,12,13,44,10.80
2008,06,12,13,45,6.60
2008,06,12,13,46,12.30
2008,06,12,13,47,12.90
2008,06,12,13,48,12.90
2008,06,12,13,49,12.50
2008,06,12,13,50,10.30
2008,06,12,13,51,10.10
2008,06,12,13,52,9.50
2008,06,12,13,53,12.90
2008,06,12,13,54,11.50
2008,06,12,13,55,20.00
2008,06,12,13,56,18.10
2008,06,12,13,57,19.50
2008,06,12,13,58,13.90
2008,06,12,13,59,14.20
2008,06,12,14,00,8.50
2008,06,12,14,01,9.70
2008,06,12,14,02,15.10
2008,06,12,14,03,16.80
2008,06,12,14,04,16.70
2008,06,12,14,05,15.90
2008,06,12,14,06,15.30
2008,06,12,14,07,17.70
2008,06,12,14,08,13.90
2008,06,12,14,09,16.30
2008,06,12,14,10,16.70
2008,06,12,14,11,19.90
2008,06,12,14,12,14.00
2008,06,12,14,13,8.90
2008,06,12,14,14,17.30
2008,06,12,14,15,19.10
2008,06,12,14,16,17.60
2008,06,12,14,17,16.00
2008,06,12,14,18,14.60
2008,06,12,14,19,12.40
2008,06,12,14,20,13.10
2008,06,12,14,21,6.40
2008,06,12,14,22,6.40
2008,06,12,14,23,13.60
2008,06,12,14,24,14.10
2008,06,12,14,25,16.70
2008,06,12,14,26,10.30
2008,06,12,14,27,16.40
2008,06,12,14,28,11.50
2008,06,12,14,29,8.10
2008,06,12,14,30,11.80
2008,06,12,14,31,12.90
2008,06,12,14,32,10.40
2008,06,12,14,33,18.70
2008,06,12,14,34,16.10
2008,06,12,14,35,20.80
2008,06,12,14,36,19.60
2008,06,12,14,37,14.80
2008,06,12,14,38,16.70
2008,06,12,14,39,15.80
2008,06,12,14,40,11.80
2008,06,12,14,41,19.80
2008,06,12,14,42,18.30
2008,06,12,14,43,16.00
2008,06,12,14,44,14.10
2008,06,12,14,45,11.00
2008,06,12,14,46,13.20
2008,06,12,14,47,8.50
2008,06,12,14,48,12.80
2008,06,12,14,49,17.20
2008,06,12,14,50,11.20
2008,06,12,14,51,12.10
2008,06,12,14,52,18.10
2008,06,12,14,53,13.50
2008,06,12,14,54,11.30
2008,06,12,14,55,13.30
2008,06,12,14,56,12.60
2008,06,12,14,57,13.50
2008,06,12,14,58,14.20
2008,06,12,14,59,15.20
2008,06,12,15,00,12.50
2008,06,12,15,01,14.50
2008,06,12,15,02,8.10
2008,06,12,15,03,8.10
2008,06,12,15,04,8.10
2008,06,12,15,05,19.90
2008,06,12,15,06,14.50
2008,06,12,15,07,14.70
2008,06,12,15,08,18.80
2008,06,12,15,09,14.30
2008,06,12,15,10,9.90
2008,06,12,15,11,18.30
2008,06,12,15,12,14.60
2008,06,12,15,13,22.20
2008,06,12,15,14,18.10
2008,06,12,15,15,17.50
2008,06,12,15,16,15.40
2008,06,12,15,17,14.80
2008,06,12,15,18,11.60
2008,06,12,15,19,15.50
2008,06,12,15,20,17.80
2008,06,12,15,21,16.90
2008,06,12,15,22,15.70
2008,06,12,15,23,13.40
2008,06,12,15,24,14.70
2008,06,12,15,25,14.50
2008,06,12,15,26,10.00
2008,06,12,15,27,9.10
2008,06,12,15,28,14.00
2008,06,12,15,29,9.70
2008,06,12,15,30,19.60
2008,06,12,15,31,8.30
2008,06,12,15,32,11.90
2008,06,12,15,33,12.50
2008,06,12,15,34,17.70
2008,06,12,15,35,16.50
2008,06,12,15,36,12.50
2008,06,12,15,37,12.10
2008,06,12,15,38,14.20
2008,06,12,15,39,16.70
2008,06,12,15,40,17.70
2008,06,12,15,41,14.00
2008,06,12,15,42,9.60
2008,06,12,15,43,9.90
2008,06,12,15,44,15.00
2008,06,12,15,45,15.80
2008,06,12,15,46,14.80
2008,06,12,15,47,14.30
2008,06,12,15,48,21.10
2008,06,12,15,49,17.70
2008,06,12,15,50,16.70
2008,06,12,15,51,11.90
2008,06,12,15,52,14.10
2008,06,12,15,53,17.70
2008,06,12,15,54,16.20
2008,06,12,15,55,19.30
2008,06,12,15,56,18.50
2008,06,12,15,57,11.60
2008,06,12,15,58,20.60
2008,06,12,15,59,10.40
2008,06,12,16,00,19.60
2008,06,12,16,01,13.80
2008,06,12,16,02,17.40
2008,06,12,16,03,19.40
2008,06,12,16,04,20.00
2008,06,12,16,05,22.20
2008,06,12,16,06,17.60
2008,06,12,16,07,19.80
2008,06,12,16,08,14.40
2008,06,12,16,09,20.30
2008,06,12,16,10,21.80
2008,06,12,16,11,15.00
2008,06,12,16,12,17.50
2008,06,12,16,13,13.80
2008,06,12,16,14,12.20
2008,06,12,16,15,12.90
2008,06,12,16,16,9.10
2008,06,12,16,17,7.40
2008,06,12,16,18,15.80
2008,06,12,16,19,12.20
2008,06,12,16,20,12.50
2008,06,12,16,21,12.00
2008,06,12,16,22,12.00
2008,06,12,16,23,11.90
2008,06,12,16,24,9.60
2008,06,12,16,25,12.50
2008,06,12,16,26,16.90
2008,06,12,16,27,8.40
2008,06,12,16,28,15.90
2008,06,12,16,29,11.90
2008,06,12,16,30,15.60
2008,06,12,16,31,10.90
2008,06,12,16,32,13.00
2008,06,12,16,33,7.70
2008,06,12,16,34,14.00
2008,06,12,16,35,19.20
2008,06,12,16,36,14.50
2008,06,12,16,37,11.20
2008,06,12,16,38,13.10
2008,06,12,16,39,10.70
2008,06,12,16,40,10.20
2008,06,12,16,41,16.90
2008,06,12,16,42,13.50
2008,06,12,16,43,13.50
2008,06,12,16,44,15.60
2008,06,12,16,45,16.10
2008,06,12,16,46,10.30
2008,06,12,16,47,11.70
2008,06,12,16,48,14.30
2008,06,12,16,49,11.90
2008,06,12,16,50,14.00
2008,06,12,16,51,14.10
2008,06,12,16,52,11.20
2008,06,12,16,53,16.90
2008,06,12,16,54,17.80
2008,06,12,16,55,17.40
2008,06,12,16,56,20.40
2008,06,12,16,57,18.70
2008,06,12,16,58,19.60
2008,06,12,16,59,16.30
2008,06,12,17,00,25.70
2008,06,12,17,01,21.80
2008,06,12,17,02,14.40
2008,06,12,17,03,17.80
2008,06,12,17,04,17.00
2008,06,12,17,05,21.90
2008,06,12,17,06,19.00
2008,06,12,17,07,25.10
2008,06,12,17,08,22.30
2008,06,12,17,09,21.30
2008,06,12,17,10,18.60
2008,06,12,17,11,13.80
2008,06,12,17,12,14.20
2008,06,12,17,13,15.30
2008,06,12,17,14,14.50
2008,06,12,17,15,15.10
2008,06,12,17,16,15.40
2008,06,12,17,17,12.70
2008,06,12,17,18,15.20
2008,06,12,17,19,13.90
2008,06,12,17,20,13.30
2008,06,12,17,21,14.30
2008,06,12,17,22,14.20
2008,06,12,17,23,13.40
2008,06,12,17,24,19.00
2008,06,12,17,25,15.60
2008,06,12,17,26,16.00
2008,06,12,17,27,13.40
2008,06,12,17,28,17.30
2008,06,12,17,29,14.50
2008,06,12,17,30,16.00
2008,06,12,17,31,13.50
2008,06,12,17,32,16.70
2008,06,12,17,33,19.60
2008,06,12,17,34,14.10
2008,06,12,17,35,16.80
2008,06,12,17,36,13.60
2008,06,12,17,37,14.60
2008,06,12,17,38,10.20
2008,06,12,17,39,12.00
2008,06,12,17,40,17.60
2008,06,12,17,41,11.50
2008,06,12,17,42,17.10
2008,06,12,17,43,18.00
2008,06,12,17,44,14.20
2008,06,12,17,45,15.10
2008,06,12,17,46,19.30
2008,06,12,17,47,19.30
2008,06,12,17,48,14.60
2008,06,12,17,49,14.50
2008,06,12,17,50,13.40
2008,06,12,17,51,7.30
2008,06,12,17,52,8.90
2008,06,12,17,53,10.60